METEOR 2-5 DEB, 36911

Orbit data source: Space-Track

METEOR 2-5 DEB, 36911 is space debris in LEO originally from a launch on Wed, 31 Oct 1979 UTC launched from the Plesetsk Missile And Space Complex (PKMTR). Debris objects in space refer to the collection of defunct objects orbiting the Earth. Examples of debris include non-operational satellites, rocket bodies, and fragments generated from explosions, collisions, or faulty payload assembly.

Loading next visibility...
Identifier
36911, 1979-095BC
Orbit
LEO
Country
Flag of CISCIS
Related business
Manufacturer
Unknown
Mission
Spacecraft
Bus & Motor
Unknown
Mass
Unknown
Launch date (UTC)
1979-10-31 (47 years ago)
Launch vehicle
Unknown
Launch site
Plesetsk Missile And Space Complex (PKMTR)
Object type
Payload
Rocket body
Debris
Shape & HBR
Unknown shape, 0.1 m
Radar Cross Section
Small (<0.1 m²)

Expand to show TLE details & history
Last TLE update: 4 days ago

TLE from 4 days ago
0 METEOR 2-5 DEB
1 36911U 79095BC  26169.55919131  .00004349  00000-0  13564-2 0  9999
2 36911  81.1743 109.3250 0025647  22.5821 337.6489 14.40553229670963
Epoch: 2026-06-18T13:25Z
TLE epoch observation values (Epoch: 2026-06-18T13:25:14.129Z)
Latitude
0.00003°
Longitude
1.21535°
Altitude
742.689 km
Speed
7.492 km/s
True Right ascension
07h 17m 18s
True Declination
0° 00' 00"
Sunlit
Object was in daylight at epoch
Visualization orbit readout
Latitude
Unknown
Longitude
Unknown
Altitude
Unknown
Speed
Unknown
Apparent Right ascension
Unknown
Apparent Declination
Unknown
Sunlit
N/A
Visualization observer readout
Local Sidereal Time
11:33:04
Azimuth
Unknown
Elevation
Unknown
Doppler factor
Unknown
Orbital elements
Apogee altitude
772.099 km
Perigee altitude
735.517 km
Semi-major axis
7,131.945 km
Eccentricity
0.00256
Inclination
81.1743°
RAAN
109.325°
Arg. of periapsis
22.5821°
True anomaly
337.53681°
Mean anomaly
337.6489°
Eccentric anomaly
337.59289°
Mean motion
3.60356 °/min
Orbital period
99.9 mins
BSTAR
0.0013564
Loading maneuver chart data...
Computing Atmospheric mass density...

Documentation

Showing up to 5 results
|